Location: Newark
(34.0131°N, 4.3314°W)
Time: 13:39:45
(UTC+00:00)

Transit 2A Rocket - Visible Passes

Search period start: 17 October 2019 00:00
Search period end: 27 October 2019 00:00
Orbit: 593 x 910 km, 66.7° (Epoch: 15 October)

Date Brightness Start Highest point End Pass type
(mag) Time Alt. Az. Time Alt. Az. Time Alt. Az.
17 Oct 4.9 05:31:56 10° SSW 05:37:19 86° WNW 05:42:12 10° NNE visible
18 Oct 5.8 04:49:39 10° S 04:54:50 50° ESE 04:59:35 10° NE visible
19 Oct 6.9 04:07:59 10° SSE 04:12:25 27° ESE 04:16:33 10° NE visible
19 Oct 5.7 05:50:15 10° WSW 05:54:51 31° WNW 05:59:08 10° N visible
20 Oct 7.7 03:27:45 11° SE 03:30:05 14° ESE 03:32:42 10° ENE visible
20 Oct 4.9 05:07:48 14° SW 05:12:16 57° WNW 05:17:01 10° NNE visible
21 Oct 4.9 04:28:20 48° S 04:29:45 77° ESE 04:34:36 10° NNE visible
22 Oct 6.3 03:48:23 35° E 03:48:23 35° E 03:51:51 10° NE visible
22 Oct 6.1 05:28:23 19° W 05:29:54 21° NW 05:33:33 10° N visible
23 Oct 7.8 03:08:09 12° ENE 03:08:09 12° ENE 03:08:37 10° ENE visible
23 Oct 5.6 04:48:07 35° NW 04:48:07 35° NW 04:51:42 10° N visible
24 Oct 6.5 04:07:38 24° NNE 04:07:38 24° NNE 04:09:29 10° NNE visible
25 Oct 7.7 03:26:57 10° NE 03:26:57 10° NE 03:26:57 10° NE visible
25 Oct 6.9 05:06:54 12° NNW 05:06:54 12° NNW 05:07:38 10° NNW visible
26 Oct 7.2 04:26:05 11° N 04:26:05 11° N 04:26:13 10° N visible
